Home   Weather   San Luis Obispo   Past weeks

Flag for USA Past Weather in San Luis Obispo, California, USA — Yesterday and Last 2 Weeks

Now
54 °F

Clear.


Feels Like: 51 °F
Forecast: 51 / 72 °F
Wind: 9 mph from Northwest

Location: San Luis Obispo County-Mc Chesney Field

Current Time: Apr 23, 2017 at 10:38:35 pm

Latest Report: Apr 23, 2017 at 9:56 pm


Visibility: 10 mi

Pressure: 29.95 "Hg

Humidity: 83%

Dew Point: 49 °F

Location of San Luis ObispoLocation

Past Weather in San Luis Obispo — Graph

°F

San Luis Obispo Temperature Yesterday

Maximum temperature yesterday: 77 °F (at 10:56 am)
Minimum temperature yesterday: 52 °F (at 2:56 am)
Average temperature yesterday: 62 °F

High & Low Weather Summary for the Past Weeks

 TemperatureHumidityPressure
High83 °F (Apr 21, 1:56 pm)97% (Apr 19, 1:06 am)30.22 "Hg (Apr 19, 1:06 am)
Low47 °F (Apr 11, 4:56 am)26% (Apr 21, 1:56 pm)29.89 "Hg (Apr 23, 4:56 am)
Average60 °F66%30.05 "Hg
* Reported Apr 8 8:56 pm — Apr 23 8:56 pm, San Luis Obispo, Weather by CustomWeather, © 2017

Note: Actual official high and low records may vary slightly from our data, if they occured in-between our weather recording intervals... More about our weather records

Advertising

San Luis Obispo Weather History for the Previous 24 Hours

Scroll right to see more
 ConditionsComfort  
Time TempWeatherWind HumidityBarometerVisibility
8:56 pm
Sun, Apr 23
55 °FClear.13 mph83%29.93 "Hg10 mi
7:56 pm55 °FClear.15 mph80%29.93 "Hg10 mi
6:56 pm58 °FSunny.17 mph75%29.93 "Hg10 mi
5:56 pm60 °FSunny.22 mph69%29.93 "Hg10 mi
4:56 pm62 °FSunny.24 mph65%29.94 "Hg10 mi
3:56 pm64 °FSunny.18 mph61%29.94 "Hg10 mi
2:56 pm65 °FSunny.26 mph59%29.96 "Hg10 mi
1:56 pm66 °FSunny.25 mph54%29.95 "Hg10 mi
12:56 pm68 °FSunny.21 mph53%29.95 "Hg10 mi
11:56 am69 °FSunny.20 mph51%29.95 "Hg10 mi
10:56 am70 °FSunny.9 mph44%29.95 "Hg10 mi
9:56 am67 °FSunny.14 mph45%29.95 "Hg10 mi
8:56 am64 °FSunny.9 mph50%29.94 "Hg10 mi
7:56 am60 °FSunny.17 mph56%29.95 "Hg10 mi
6:56 am57 °FSunny.17 mph64%29.94 "Hg10 mi
5:56 am54 °FPassing clouds.14 mph86%29.91 "Hg9 mi
4:56 am54 °FClear.12 mph86%29.89 "Hg9 mi
3:56 am53 °FClear.13 mph89%29.90 "Hg10 mi
2:56 am52 °FClear.No wind89%29.91 "Hg8 mi
1:56 am54 °FClear.3 mph86%29.91 "Hg10 mi
1:24 am54 °FPassing clouds.7 mph86%29.94 "Hg10 mi
12:56 am56 °FLow clouds.3 mph90%29.94 "Hg9 mi
11:56 pm
Sat, Apr 22
55 °FClear.3 mph87%29.93 "Hg10 mi
10:56 pm57 °FPassing clouds.No wind83%29.93 "Hg10 mi
Weather by CustomWeather, © 2017

See weather overviewHow to use our weather pages